Time,TemperatureF,DewpointF,PressureIn,WindDirection,WindDirectionDegrees,WindSpeedMPH,WindSpeedGustMPH,Humidity,HourlyPrecipIn,Conditions,Clouds,dailyrainin,SoftwareType,DateUTC
2013-03-28 12:52:00,54.0,27.0,-100.00,ESE,106,2.0,6.0,36,-99.99,,,0.00,,2013-03-28 18:52:00,
2013-03-28 13:22:00,53.0,20.0,-100.00,SW,216,4.0,8.0,27,0.00,,,0.00,,2013-03-28 19:22:00,
2013-03-28 13:32:00,53.0,20.0,-100.00,SW,216,4.0,8.0,27,0.00,,,0.00,,2013-03-28 19:32:00,
2013-03-28 13:42:00,53.0,20.0,-100.00,SW,216,4.0,8.0,27,0.00,,,0.00,,2013-03-28 19:42:00,
2013-03-28 13:52:00,53.0,20.0,-100.00,SW,216,4.0,8.0,27,0.00,,,0.00,,2013-03-28 19:52:00,
2013-03-28 14:12:00,57.0,16.0,-100.00,SW,227,2.0,5.0,20,0.00,,,0.00,,2013-03-28 20:12:00,
2013-03-28 14:22:00,57.0,16.0,-100.00,SW,227,2.0,5.0,20,0.00,,,0.00,,2013-03-28 20:22:00,
2013-03-28 15:12:00,56.0,18.0,-100.00,WSW,247,5.0,8.0,22,0.00,,,0.00,,2013-03-28 21:12:00,
2013-03-28 15:22:00,56.0,18.0,-100.00,WSW,247,5.0,8.0,22,0.00,,,0.00,,2013-03-28 21:22:00,
2013-03-28 15:32:00,56.0,18.0,-100.00,WSW,247,5.0,8.0,22,0.00,,,0.00,,2013-03-28 21:32:00,
2013-03-28 15:42:00,56.0,18.0,-100.00,WSW,247,5.0,8.0,22,0.00,,,0.00,,2013-03-28 21:42:00,
2013-03-28 15:52:00,56.0,18.0,-100.00,WSW,247,5.0,8.0,22,0.00,,,0.00,,2013-03-28 21:52:00,
2013-03-28 16:22:00,53.0,16.0,-100.00,West,272,6.0,9.0,22,0.00,,,0.00,,2013-03-28 22:22:00,
2013-03-28 17:12:00,53.0,16.0,-100.00,West,260,9.0,12.0,23,0.00,,,0.00,,2013-03-28 23:12:00,
2013-03-28 17:22:00,53.0,16.0,-100.00,West,260,9.0,12.0,23,0.00,,,0.00,,2013-03-28 23:22:00,
2013-03-28 17:32:00,53.0,16.0,-100.00,West,260,9.0,12.0,23,0.00,,,0.00,,2013-03-28 23:32:00,
2013-03-28 18:12:00,53.0,19.0,-100.00,West,278,5.0,9.0,26,0.00,,,0.00,,2013-03-29 00:12:00,
2013-03-28 18:22:00,53.0,19.0,-100.00,West,278,5.0,9.0,26,0.00,,,0.00,,2013-03-29 00:22:00,
2013-03-28 18:32:00,53.0,19.0,-100.00,West,278,5.0,9.0,26,0.00,,,0.00,,2013-03-29 00:32:00,
2013-03-28 18:42:00,53.0,19.0,-100.00,West,278,5.0,9.0,26,0.00,,,0.00,,2013-03-29 00:42:00,
2013-03-28 18:51:00,53.0,19.0,-100.00,West,278,5.0,9.0,26,0.00,,,0.00,,2013-03-29 00:51:00,
2013-03-28 19:12:00,51.0,17.0,-100.00,West,272,6.0,8.0,26,0.00,,,-99.99,,2013-03-29 01:12:00,
2013-03-28 19:22:00,51.0,17.0,-100.00,West,272,6.0,8.0,26,0.00,,,-99.99,,2013-03-29 01:22:00,
2013-03-28 19:32:00,51.0,17.0,-100.00,West,272,6.0,8.0,26,0.00,,,-99.99,,2013-03-29 01:32:00,
2013-03-28 19:42:00,51.0,17.0,-100.00,West,272,6.0,8.0,26,0.00,,,-99.99,,2013-03-29 01:42:00,
2013-03-28 19:52:00,51.0,17.0,-100.00,West,272,6.0,8.0,26,0.00,,,-99.99,,2013-03-29 01:52:00,
2013-03-28 20:12:00,49.0,18.0,-100.00,WNW,288,4.0,7.0,29,0.00,,,-99.99,,2013-03-29 02:12:00,
2013-03-28 20:22:00,49.0,18.0,-100.00,WNW,288,4.0,7.0,29,0.00,,,-99.99,,2013-03-29 02:22:00,
2013-03-28 21:21:00,38.0,22.0,-100.00,WNW,299,2.0,4.0,52,-99.99,,,-99.99,,2013-03-29 03:21:00,
2013-03-28 21:32:00,38.0,22.0,-100.00,WNW,299,2.0,4.0,52,-99.99,,,-99.99,,2013-03-29 03:32:00,
2013-03-28 21:42:00,38.0,22.0,-100.00,WNW,299,2.0,4.0,52,-99.99,,,-99.99,,2013-03-29 03:42:00,
2013-03-28 21:52:00,38.0,22.0,-100.00,WNW,299,2.0,4.0,52,-99.99,,,-99.99,,2013-03-29 03:52:00,
2013-03-28 22:22:00,30.0,20.0,-100.00,WNW,301,0.0,1.0,64,0.00,,,-99.99,,2013-03-29 04:22:00,
2013-03-28 22:33:00,30.0,20.0,-100.00,WNW,301,0.0,1.0,64,0.00,,,-99.99,,2013-03-29 04:33:00,
2013-03-28 22:42:00,30.0,20.0,-100.00,WNW,301,0.0,1.0,64,0.00,,,-99.99,,2013-03-29 04:42:00,
2013-03-28 22:52:00,30.0,20.0,-100.00,WNW,301,0.0,1.0,64,0.00,,,-99.99,,2013-03-29 04:52:00,
2013-03-28 23:12:00,27.0,21.0,-100.00,NE,36,1.0,1.0,78,0.00,,,-99.99,,2013-03-29 05:12:00,
2013-03-28 23:22:00,27.0,21.0,-100.00,NE,36,1.0,1.0,78,0.00,,,-99.99,,2013-03-29 05:22:00,
2013-03-28 23:32:00,27.0,21.0,-100.00,NE,36,1.0,1.0,78,0.00,,,-99.99,,2013-03-29 05:32:00,
2013-03-28 23:43:00,27.0,21.0,-100.00,NE,36,1.0,1.0,78,0.00,,,-99.99,,2013-03-29 05:43:00,
2013-03-28 23:52:00,27.0,21.0,-100.00,NE,36,1.0,1.0,78,0.00,,,-99.99,,2013-03-29 05:52:00,